Weather History for Fort Wayne, IN

Change the Weather History Date:

Monday, October 3, 2011

  Actual Average Record
Temperature  
Mean Temperature 56 °F 57 °F  
Max Temperature 71 °F 69 °F 91 °F (1898)
Min Temperature 40 °F 46 °F 25 °F (1974)
Degree Days  
Heating Degree Days 9 9  
Month to date heating degree days 41 25  
Since 1 July heating degree days 182 141  
Cooling Degree Days 0 1  
Month to date cooling degree days 0 3  
Year to date cooling degree days 1122 803  
Growing Degree Days 5 (Base 50)    
Moisture  
Dew Point 39 °F    
Average Humidity 60    
Maximum Humidity 92    
Minimum Humidity 28    
Precipitation  
Precipitation 0.00 in 0.10 in 1.75 in (1954)
Month to date precipitation 0.00 0.29  
Year to date precipitation 35.87 29.93  
Snow  
Snow 0.00 in 0.00 in 0.00 in ()
Month to date snowfall 0.0 0.0  
Since 1 July snowfall 0.0 0.0  
Since 1 September snowfall 0.0  
Snow Depth 0.00 in    
Sea Level Pressure  
Sea Level Pressure 30.17 in    
Wind  
Wind Speed 6 mph (NW)    
Max Wind Speed 15 mph    
Max Gust Speed 21 mph    
Visibility 10 miles    
Events      
T = Trace of Precipitation, MM = Missing Value Source: NWS Daily Summary

Daily Weather History Graph

Daily Weather History Graph

Search for Another Location

Airport:

Trip Planner

Search our weather history database for the weather conditions in past years. The results will help you decide how hot, cold, wet, or windy it might be!

Date:

Astronomy

Oct. 03, 2011 Rise Set
Actual Time 7:39 AM EDT 7:19 PM EDT
Civil Twilight 7:11 AM EDT 7:47 PM EDT
Nautical Twilight 6:39 AM EDT 8:19 PM EDT
Astronomical Twilight 6:07 AM EDT 8:51 PM EDT
Moon 2:38 PM EDT (10/3) No Moon Set
Length of Visible Light 12h 35m
Length of Day
11h 40m
Waxing Crescent, 45% of the Moon is Illuminated
Oct 3
Waxing Crescent
Oct 3
First Quarter
Oct 11
Full
Oct 19
Last Quarter
Oct 26
New

Hourly Weather History & Observations

Time (EDT) Temp. Windchill Dew Point Humidity Pressure Visibility Wind Dir Wind Speed Gust Speed Precip Events Conditions
12:54 AM 45.0 °F 41.8 °F 37.0 °F 74% 30.13 in 10.0 mi NW 5.8 mph - N/A   Scattered Clouds
1:54 AM 44.1 °F 40.8 °F 37.0 °F 76% 30.13 in 10.0 mi NW 5.8 mph - N/A   Scattered Clouds
2:54 AM 43.0 °F 40.3 °F 37.0 °F 80% 30.15 in 10.0 mi NNW 4.6 mph - N/A   Scattered Clouds
3:54 AM 42.1 °F 39.2 °F 37.0 °F 82% 30.13 in 10.0 mi NNW 4.6 mph - N/A   Mostly Cloudy
4:54 AM 42.1 °F 40.2 °F 37.0 °F 82% 30.14 in 10.0 mi NW 3.5 mph - N/A   Scattered Clouds
5:54 AM 43.0 °F 39.5 °F 37.9 °F 82% 30.14 in 10.0 mi WNW 5.8 mph - N/A   Scattered Clouds
6:54 AM 42.1 °F 37.1 °F 37.9 °F 85% 30.16 in 10.0 mi NW 8.1 mph - N/A   Scattered Clouds
7:54 AM 39.9 °F - 37.0 °F 89% 30.18 in 10.0 mi Calm Calm - N/A   Scattered Clouds
8:54 AM 46.0 °F 43.9 °F 39.9 °F 79% 30.19 in 10.0 mi NW 4.6 mph - N/A   Scattered Clouds
9:54 AM 52.0 °F - 42.1 °F 69% 30.18 in 10.0 mi WNW 3.5 mph - N/A   Scattered Clouds
10:54 AM 57.9 °F - 44.1 °F 60% 30.19 in 10.0 mi NW 6.9 mph - N/A   Mostly Cloudy
11:54 AM 62.1 °F - 42.1 °F 48% 30.17 in 10.0 mi NW 6.9 mph - N/A   Scattered Clouds
12:54 PM 66.0 °F - 37.9 °F 36% 30.17 in 10.0 mi NW 11.5 mph - N/A   Scattered Clouds
1:54 PM 68.0 °F - 37.4 °F 33% 30.15 in 10.0 mi NNW 11.5 mph 19.6 mph N/A   Scattered Clouds
2:54 PM 70.0 °F - 37.9 °F 31% 30.14 in 10.0 mi NNW 12.7 mph - N/A   Scattered Clouds
3:54 PM 71.1 °F - 37.9 °F 30% 30.14 in 10.0 mi NNW 10.4 mph - N/A   Scattered Clouds
4:54 PM 70.0 °F - 36.0 °F 29% 30.14 in 10.0 mi North 10.4 mph - N/A   Scattered Clouds
5:54 PM 69.1 °F - 37.0 °F 31% 30.15 in 10.0 mi North 9.2 mph - N/A   Scattered Clouds
6:54 PM 64.9 °F - 39.0 °F 39% 30.16 in 10.0 mi NNW 4.6 mph - N/A   Partly Cloudy
7:54 PM 59.0 °F - 39.0 °F 48% 30.17 in 10.0 mi NNW 3.5 mph - N/A   Clear
8:54 PM 54.0 °F - 39.9 °F 59% 30.20 in 10.0 mi NNW 3.5 mph - N/A   Clear
9:54 PM 54.0 °F - 39.0 °F 57% 30.21 in 10.0 mi NW 3.5 mph - N/A   Clear
10:54 PM 53.1 °F - 42.1 °F 66% 30.22 in 10.0 mi NW 5.8 mph - N/A   Clear
11:54 PM 48.9 °F - 42.1 °F 77% 30.23 in 10.0 mi NNW 4.6 mph - N/A   Clear